sat.trackr.live / text

‹ back to catalog

STARLINK-32403

NORAD 61629 · 2024-191J

PAYLOAD ACTIVE UNKNOWN

§ Identity

Operator
Country
US
Launch date
2024-10-23
Launch site
AFETR
Launch vehicle
Mass (kg)
RCS (m²)

Purposes: comms

External: N2YO · Heavens-Above · Gunter

§ Orbital elements

Epoch: 2026-05-24T20:16:53.908896Z

Period
94.27 min
Inclination
43.0017°
Eccentricity
0.0001390
Mean motion
15.27574955 rev/d
Perigee alt
482.1 km
Apogee alt
484.0 km
Semi-major
6,861.2 km
B*
9.3914e-6
RAAN
84.3953°
Arg perigee
281.4628°
Mean anomaly
78.6068°
Rev number
8,918

§ Raw data

STARLINK-324031 61629U 24191J   26144.84506839 -.00000004  00000+0  93914-5 0  99962 61629  43.0017  84.3953 0001390 281.4628  78.6068 15.27574955 89188

JSON: /api/v1/satellites/61629 · /tle

For live sub-satellite position, see the globe view (requires WebGL).

§ Visibility from observer

Set your observer location to see the next 7 days of passes ≥ 10°. The values pass through the URL so the page stays shareable.

No JS? Fill the form by hand. The geolocation button needs JavaScript.